Location: Newark
(43.0000°N, 1.6781°W)
Time: 10:17:42
(UTC+00:00)

Courier 1B Rocket - All Passes

Search period start: 27 September 2022 00:00
Search period end: 07 October 2022 00:00
Orbit: 920 x 1202 km, 28.2° (Epoch: 26 September)

Date Brightness Start Highest point End Pass type
(mag) Time Alt. Az. Time Alt. Az. Time Alt. Az.
27 Sep - 00:36:52 10° SW 00:41:07 19° S 00:45:30 10° SE night (unlit)
27 Sep - 02:32:17 10° SSW 02:33:27 10° SSW 02:34:40 10° S night (unlit)
27 Sep - 21:43:59 10° SSW 21:48:01 18° S 21:52:03 10° SE night (unlit)
27 Sep - 23:35:59 10° SW 23:40:23 20° S 23:44:53 10° SE night (unlit)
28 Sep - 01:29:49 10° SW 01:32:45 13° SSW 01:35:43 10° S night (unlit)
28 Sep - 20:43:49 10° SSW 20:47:19 15° SSE 20:50:48 10° SE visible
28 Sep - 22:35:13 10° SW 22:39:40 20° S 22:44:08 10° SE night (unlit)
29 Sep - 00:28:21 10° SW 00:32:02 16° SSW 00:35:46 10° SSE night (unlit)
29 Sep - 19:44:06 10° S 19:46:38 12° SSE 19:49:08 10° SE visible
29 Sep - 21:34:34 10° SW 21:38:56 20° S 21:43:17 10° SE visible
29 Sep - 23:27:13 10° SW 23:31:19 18° S 23:35:27 10° SSE night (unlit)
30 Sep - 20:34:03 10° SSW 20:38:13 18° S 20:42:20 10° SE visible
30 Sep - 22:26:14 10° SW 22:30:36 20° S 22:34:58 10° SE night (unlit)
01 Oct - 00:20:21 10° SW 00:22:54 13° SSW 00:25:28 10° S night (unlit)
01 Oct - 19:33:44 10° SSW 19:37:30 16° SSE 19:41:12 10° SE visible
01 Oct - 21:25:22 10° SW 21:29:53 21° S 21:34:20 10° SE visible
01 Oct - 23:18:42 10° SW 23:22:13 16° SSW 23:25:45 10° SSE night (unlit)
02 Oct - 18:33:45 10° S 18:36:46 13° SSE 18:39:44 10° SE visible
02 Oct - 20:24:35 10° SW 20:29:08 20° S 20:33:36 10° SE visible
02 Oct - 22:17:25 10° SW 22:21:31 18° S 22:25:36 10° SSE night (unlit)
03 Oct - 17:34:49 10° S 17:36:02 10° SSE 17:37:15 10° SSE daylight
03 Oct - 19:23:56 10° SW 19:28:24 19° S 19:32:44 10° SE visible
03 Oct - 21:16:18 10° SW 21:20:48 20° S 21:25:13 10° SE visible
03 Oct - 23:10:42 10° SW 23:13:05 12° SSW 23:15:28 10° S night (unlit)
04 Oct - 18:23:27 10° SSW 18:27:38 17° SSE 18:31:41 10° SE visible
04 Oct - 20:15:19 10° SW 20:20:04 21° S 20:24:41 10° SE visible
04 Oct - 22:08:50 10° SW 22:12:25 16° SSW 22:15:57 10° SSE visible
05 Oct - 17:23:15 10° SSW 17:26:51 15° SSE 17:30:20 10° SE daylight
05 Oct - 19:14:25 10° SW 19:19:18 21° S 19:24:00 10° SE visible
05 Oct - 21:07:26 10° SW 21:11:43 19° S 21:15:53 10° SSE visible
06 Oct - 16:23:42 10° S 16:26:03 12° SSE 16:28:22 10° SE daylight
06 Oct - 18:13:38 10° SW 18:18:30 20° S 18:23:10 10° SE visible
06 Oct - 20:06:12 10° SW 20:10:58 21° S 20:15:34 10° SE visible
06 Oct - 22:00:45 10° SW 22:03:15 12° SSW 22:05:43 10° S visible
